SCRIPT_RESULTS Banner
Decoded METAR for LQBK

by Dr. Günther Eichhorn

Decoded METAR for LQBK provided by aerobaticsweb.org
Current time: Saturday, 28 May, 2022, 19:41 UTC
(This may take a minute, please be patient)


The most recent METAR observation from LQBK in our system was generated at 2022/05/28 19:30

Original METAR code

2022/05/28 19:30
LQBK 281930Z 31003KT 9999 FEW040 13/13 Q1016 NOSIG
METAR Observation for: LQBK
Date/Time of Observation: 28 May 2022, 19:30 UTC (28 May 2022, 21:30 CEST)
Wind: From 310° at 3 kts (6 km/h)
Visibility: 10 km (6 sm) or greater
Sky Conditions: Few clouds at 4000 ft
Temperature: 13.0° C (55.4° F)
Dew Point: 13.0° C (55.4° F)
Relative Humidity: 100%
Altimeter: 1016 hPa/mbar (30.01" Hg)

Remarks:

No significant change expected

24 Hour Summary

Time (UTC) Temperature
°C (°F)
Dew Point
°C (°F)
Pressure
Inches (hPa)
Wind
mph (km/h)
Weather
00:00 28 May 20 (68 ) 18 (64 ) 29.91 (1013) N 10 (16)
01:00 28 May 19 (66 ) 15 (59 ) 29.91 (1013) N 6 (10)
02:00 28 May 17 (62 ) 14 (57 ) 29.91 (1013) N 3 (5)
03:00 28 May 18 (64 ) 14 (57 ) 29.94 (1014) SE 5 (8)
04:00 28 May 18 (64 ) 14 (57 ) 29.97 (1015) ESE 5 (8)
05:00 28 May 17 (62 ) 14 (57 ) 29.97 (1015) E 7 (11)
06:00 28 May 17 (62 ) 14 (57 ) 30.00 (1016) E 6 (10)
07:00 28 May 17 (62 ) 14 (57 ) 30.00 (1016) ENE 6 (10)
08:00 28 May 17 (62 ) 12 (53 ) 30.00 (1016) ENE 6 (10)
09:00 28 May 16 (60 ) 11 (51 ) 30.00 (1016) NE 8 (13) light rain showers
10:00 28 May 14 (57 ) 12 (53 ) 30.03 (1017) NE 5 (8) rain with thunder
11:00 28 May 13 (55 ) 13 (55 ) 30.03 (1017) N 5 (8) rain showers
12:00 28 May 14 (57 ) 13 (55 ) 30.00 (1016) ESE 3 (5) light rain showers
13:00 28 May 14 (57 ) 12 (53 ) 30.00 (1016) Variable 2 (3)
14:00 28 May 14 (57 ) 13 (55 ) 30.00 (1016) NNE 5 (8)
15:00 28 May 14 (57 ) 13 (55 ) 30.00 (1016) N 7 (11)
16:00 28 May 14 (57 ) 12 (53 ) 30.00 (1016) N 7 (11) light rain
17:00 28 May 13 (55 ) 13 (55 ) 30.00 (1016) E 5 (8) light rain
18:00 28 May 13 (55 ) 13 (55 ) 30.00 (1016) N 3 (5)
19:00 28 May 13 (55 ) 13 (55 ) 30.00 (1016) NW 3 (5)
20:00 27 May 21 (69 ) 18 (64 ) 29.91 (1013) Variable 1 (2)
21:00 27 May 19 (66 ) 18 (64 ) 29.88 (1012) Variable 1 (2)
22:00 27 May 19 (66 ) 18 (64 ) 29.91 (1013) S 5 (8)
23:00 27 May 19 (66 ) 18 (64 ) 29.88 (1012) S 3 (5)
The information presented here is taken from products produced by the U.S. National Weather Service and other national and international agencies. Landings.com does not present this as official information. Please refer to official weather briefings for flight critical information.


access provided by Dr. Guenther Eichhorn at aerobaticsweb.org